Date String (YYYY-MM-DD hh:mm:ss) UTC,Instrument flags,Ambient pressure (hPa),Sample flow (lpm),Bypass flow (lpm),Sample temperature (°C),Ambient temperature (°C),ASC tube jacket temperature (°C),LED temperature (°C),Box temperature (°C),Sample RH (%),Span deviation,Mass concentration (μg/m³),Mass concentration (μg/m³),Mass concentration (μg/m³)
DateTimeUTC,F1_M11,P_M11,Q1_M11,Q2_M11,T1_M11,T2_M11,T3_M11,T4_M11,T5_M11,U1_M11,ZSPAN_M11,X0_M11,X2_M11,X1_M11
2022-03-02 13:00:00,,0829.5,5.00,0.00,25.9,25.0,00.0,35.1,27.6,10.0,0000.0,0000.55,0000.38,0000.29
2022-03-02 13:01:00,,0829.5,4.98,0.00,25.9,25.0,00.0,35.1,27.6,09.9,0000.0,0000.49,0000.35,0000.28
2022-03-02 13:02:00,,0829.5,5.02,0.00,25.9,25.0,00.0,35.1,27.5,10.0,0000.0,0000.48,0000.35,0000.27
2022-03-02 13:03:00,,0829.5,5.01,0.00,25.8,24.9,00.0,35.1,27.5,09.9,0000.0,0000.48,0000.33,0000.26
2022-03-02 13:04:00,,0829.5,4.99,0.00,25.8,24.9,00.0,35.0,27.4,09.9,0000.0,0000.48,0000.32,0000.26
2022-03-02 13:05:00,,0829.5,5.01,0.00,25.7,24.9,00.0,35.0,27.4,10.0,0000.0,0000.50,0000.32,0000.26
2022-03-02 13:06:00,,0829.5,5.00,0.00,25.7,24.8,00.0,35.0,27.4,09.9,0000.0,0000.56,0000.34,0000.26
2022-03-02 13:07:00,,0829.5,4.99,0.00,25.7,24.8,00.0,35.0,27.4,09.8,0000.0,0000.58,0000.35,0000.26
2022-03-02 13:08:00,,0829.5,5.00,0.00,25.7,24.8,00.0,34.9,27.3,09.8,0000.0,0000.62,0000.36,0000.26
2022-03-02 13:09:00,,0829.5,5.01,0.00,25.6,24.8,00.0,34.9,27.3,09.8,0000.0,0000.63,0000.36,0000.26
2022-03-02 13:10:00,,0829.5,5.01,0.00,25.6,24.7,00.0,34.9,27.3,09.7,0000.0,0000.70,0000.38,0000.26
2022-03-02 13:11:00,,0829.5,4.99,0.00,25.6,24.7,00.0,34.9,27.2,09.7,0000.0,0000.71,0000.39,0000.26
2022-03-02 13:12:00,,0829.5,5.01,0.00,25.6,24.7,00.0,34.8,27.2,09.8,0000.0,0000.71,0000.39,0000.26
2022-03-02 13:13:00,,0829.5,5.01,0.00,25.5,24.7,00.0,34.8,27.2,09.7,0000.0,0000.82,0000.41,0000.25
2022-03-02 13:14:00,,0829.5,4.98,0.00,25.5,24.7,00.0,34.8,27.2,09.6,0000.0,0000.92,0000.43,0000.26
2022-03-02 13:15:00,,0829.5,5.02,0.00,25.5,24.7,00.0,34.8,27.2,09.8,0000.0,0000.84,0000.40,0000.25
2022-03-02 13:16:00,,0829.5,4.99,0.00,25.5,24.7,00.0,34.7,27.2,09.9,0000.0,0000.79,0000.39,0000.25
2022-03-02 13:17:00,,0829.5,5.00,0.00,25.5,24.7,00.0,34.7,27.3,10.3,0000.0,0000.75,0000.38,0000.25
2022-03-02 13:18:00,,0829.5,4.99,0.00,25.5,24.7,00.0,34.7,27.3,10.2,0000.0,0000.75,0000.37,0000.25
2022-03-02 13:19:00,,0829.5,5.02,0.00,25.5,24.8,00.0,34.7,27.3,10.1,0000.0,0000.71,0000.36,0000.25
2022-03-02 13:20:00,,0829.5,4.99,0.00,25.5,24.8,00.0,34.7,27.3,10.0,0000.0,0000.70,0000.36,0000.25
2022-03-02 13:21:00,,0829.5,5.02,0.00,25.5,24.8,00.0,34.7,27.3,09.9,0000.0,0000.63,0000.34,0000.24
2022-03-02 13:22:00,,0829.5,4.99,0.00,25.5,24.8,00.0,34.7,27.3,09.9,0000.0,0000.62,0000.33,0000.24
2022-03-02 13:23:00,,0829.5,5.00,0.00,25.5,24.9,00.0,34.6,27.4,09.8,0000.0,0000.61,0000.33,0000.25
2022-03-02 13:24:00,,0829.5,5.00,0.00,25.6,24.9,00.0,34.6,27.4,09.8,0000.0,0000.50,0000.30,0000.25
2022-03-02 13:25:00,,0829.5,5.01,0.00,25.6,24.9,00.0,34.6,27.4,09.7,0000.0,0000.40,0000.29,0000.24
2022-03-02 13:26:00,,0829.5,4.99,0.00,25.6,25.0,00.0,34.6,27.4,09.7,0000.0,0000.43,0000.31,0000.24
2022-03-02 13:27:00,,0829.5,4.99,0.00,25.6,25.0,00.0,34.6,27.4,09.8,0000.0,0000.45,0000.31,0000.24
2022-03-02 13:28:00,,0829.5,5.02,0.00,25.6,25.0,00.0,34.6,27.4,09.8,0000.0,0000.47,0000.31,0000.23
2022-03-02 13:29:00,,0829.5,4.99,0.00,25.7,25.1,00.0,34.6,27.5,09.8,0000.0,0000.46,0000.31,0000.24
2022-03-02 13:30:00,,0829.5,5.02,0.00,25.7,25.1,00.0,34.7,27.5,09.8,0000.0,0000.47,0000.32,0000.24
2022-03-02 13:31:00,,0829.5,4.99,0.00,25.7,25.1,00.0,34.7,27.5,09.8,0000.0,0000.47,0000.32,0000.24
2022-03-02 13:32:00,,0829.5,5.00,0.00,25.7,25.1,00.0,34.7,27.5,09.8,0000.0,0000.47,0000.32,0000.24
2022-03-02 13:33:00,,0829.5,5.01,0.00,25.7,25.2,00.0,34.7,27.6,09.7,0000.0,0000.48,0000.32,0000.23
2022-03-02 13:34:00,,0829.5,5.00,0.00,25.8,25.2,00.0,34.7,27.6,09.8,0000.0,0000.52,0000.33,0000.23
2022-03-02 13:35:00,,0829.4,5.00,0.00,25.8,25.2,00.0,34.7,27.6,09.9,0000.0,0000.55,0000.34,0000.23
2022-03-02 13:36:00,,0829.5,5.01,0.00,25.8,25.2,00.0,34.7,27.6,09.9,0000.0,0000.53,0000.33,0000.24
2022-03-02 13:37:00,,0829.5,5.00,0.00,25.8,25.2,00.0,34.7,27.6,09.7,0000.0,0000.51,0000.32,0000.24
2022-03-02 13:38:00,,0829.5,5.00,0.00,25.8,25.2,00.0,34.7,27.6,09.7,0000.0,0000.48,0000.31,0000.24
2022-03-02 13:39:00,,0829.4,5.00,0.00,25.8,25.2,00.0,34.8,27.6,09.5,0000.0,0000.43,0000.30,0000.24
2022-03-02 13:40:00,,0829.4,5.01,0.00,25.8,25.2,00.0,34.8,27.7,09.6,0000.0,0000.42,0000.29,0000.24
2022-03-02 13:41:00,,0829.4,4.99,0.00,25.9,25.2,00.0,34.8,27.7,09.7,0000.0,0000.40,0000.27,0000.23
2022-03-02 13:42:00,,0829.4,5.02,0.00,25.9,25.2,00.0,34.8,27.6,09.5,0000.0,0000.45,0000.30,0000.24
2022-03-02 13:43:00,,0829.4,4.99,0.00,25.9,25.2,00.0,34.8,27.7,09.3,0000.0,0000.46,0000.29,0000.23
2022-03-02 13:44:00,,0829.3,4.99,0.00,25.9,25.3,00.0,34.8,27.7,09.3,0000.0,0000.45,0000.29,0000.23
2022-03-02 13:45:00,,0829.4,5.01,0.00,25.9,25.3,00.0,34.8,27.7,09.4,0000.0,0000.41,0000.28,0000.23
2022-03-02 13:46:00,,0829.4,5.01,0.00,25.9,25.2,00.0,34.8,27.7,09.5,0000.0,0000.37,0000.26,0000.22
2022-03-02 13:47:00,,0829.4,4.99,0.00,26.0,25.3,00.0,34.9,27.7,09.5,0000.0,0000.35,0000.25,0000.22
2022-03-02 13:48:00,,0829.4,5.01,0.00,26.0,25.3,00.0,34.9,27.7,09.4,0000.0,0000.35,0000.25,0000.21
2022-03-02 13:49:00,,0829.5,5.00,0.00,26.0,25.3,00.0,34.9,27.8,09.5,0000.0,0000.35,0000.25,0000.21
2022-03-02 13:50:00,,0829.5,4.99,0.00,26.0,25.3,00.0,34.9,27.8,09.4,0000.0,0000.34,0000.25,0000.21
2022-03-02 13:51:00,,0829.5,5.00,0.00,26.0,25.3,00.0,34.9,27.8,09.5,0000.0,0000.33,0000.24,0000.20
2022-03-02 13:52:00,,0829.4,5.00,0.00,26.0,25.3,00.0,34.9,27.8,09.6,0000.0,0000.69,0000.24,0000.20
2022-03-02 13:53:00,,0829.5,5.01,0.00,26.0,25.3,00.0,34.9,27.8,09.5,0000.0,0000.68,0000.22,0000.20
2022-03-02 13:54:00,,0829.5,4.99,0.00,26.0,25.3,00.0,34.9,27.8,09.5,0000.0,0000.68,0000.22,0000.20
2022-03-02 13:55:00,,0829.5,5.01,0.00,26.0,25.3,00.0,34.9,27.9,09.5,0000.0,0000.69,0000.23,0000.20
2022-03-02 13:56:00,,0829.5,5.01,0.00,26.0,25.3,00.0,34.9,27.9,09.5,0000.0,0000.67,0000.22,0000.20
2022-03-02 13:57:00,,0829.4,4.99,0.00,26.0,25.4,00.0,35.0,27.8,09.6,0000.0,0000.67,0000.22,0000.20
2022-03-02 13:58:00,,0829.4,5.01,0.00,26.0,25.4,00.0,35.0,27.8,09.5,0000.0,0000.71,0000.24,0000.20
2022-03-02 13:59:00,,0829.4,4.99,0.00,26.1,25.4,00.0,35.0,27.8,09.5,0000.0,0000.72,0000.24,0000.20
